Regional Weather Roundup
Issued by NWS Sioux Falls, SD

Home | Current Version | Previous Version | Text Only | Print | Product List | Glossary On
Versions: 1 2 3 4 5 6 7 8 9 10 11 12 13 14 15 16 17 18 19 20 21 22 23 24 25 26 27 28 29 30 31 32 33 34 35 36 37 38 39 40 41 42 43 44 45 46 47 48 49 50
000
ASUS43 KFSD 220110
RWRFSD

WEATHER ROUNDUP FOR SE SOUTH DAKOTA/SW MINNESOTA/NW IOWA
NATIONAL WEATHER SERVICE SIOUX FALLS SD
700 PM CST TUE NOV 21 2017

NOTE: "FAIR" INDICATES FEW OR NO CLOUDS BELOW 12,000 FEET WITH NO
SIGNIFICANT WEATHER AND OR OBSTRUCTIONS TO VISIBILITY.


SDZ038>040-050-052>070-220200-
SOUTHEAST SOUTH DAKOTA

CITY           SKY/WX    TMP DP  RH WIND       PRES   REMARKS
BROOKINGS      CLOUDY    16   8  71 NW8       30.35R WCI   5
CHAMBERLAIN    CLOUDY    22  12  64 NW3       30.36F
HURON          CLOUDY    12   6  77 NW6       30.39S WCI   3
MADISON        FAIR      18   7  62 NW7       30.35R WCI   8
MITCHELL       CLOUDY    19   7  59 NW3       30.40S
SIOUX FALLS    CLOUDY    20   8  60 NW10      30.37R WCI   9
WINNER         FAIR      16   9  74 SW8       30.36S WCI   5
YANKTON        CLOUDY    17   8  67 NW6       30.40R WCI   9
$$

MNZ071-072-080-081-089-090-097-098-220200-
SOUTHWEST MINNESOTA

CITY           SKY/WX    TMP DP  RH WIND       PRES   REMARKS
FAIRMONT       CLEAR     22  11  62 NW15      30.31R WCI   9
JACKSON        MOCLDY    21   9  58 NW12      30.32R WCI   9
LUVERNE        CLOUDY    19   7  58 NW7       30.36R WCI  10
MARSHALL       CLOUDY    15   7  70 NW9       30.36R WCI   3
MONTEVIDEO     CLEAR     19   9  63 N12       30.36R WCI   7
PIPESTONE      CLOUDY    19   7  58 NW9       30.33R WCI   9
REDWOOD FALLS  CLEAR     22   8  55 NW13G21   30.33S WCI  10
WINDOM           N/A     19   5  53 NW9       30.32R WCI   9
WORTHINGTON    CLOUDY    16   7  67 NW8       30.33R WCI   5
$$

IAZ001>003-012>014-020>022-031-032-NEZ013-014-SDZ071-220200-
NORTHWEST IOWA

CITY           SKY/WX    TMP DP  RH WIND       PRES   REMARKS
CHEROKEE       CLEAR     24  10  56 NW3       30.35R
DENISON        CLEAR     23  12  63 N6        30.36R WCI  16
ESTHERVILLE    CLEAR     20  10  65 NW12      30.31R WCI   8
LE MARS        CLOUDY    23   9  54 NW9       30.37S WCI  13
ORANGE CITY    CLOUDY    23  10  58 NW7       30.34S WCI  15
SHELDON        CLOUDY    19   9  63 NW10      30.33R WCI   8
SIOUX CITY     CLOUDY    23  10  57 NW13      30.39R WCI  11
SPENCER        CLEAR     16   8  71 NW8       30.34R WCI   5
STORM LAKE     CLEAR     21  10  63 NW12      30.33R WCI   9
$$

ABBREVIATIONS USED IN REMARKS
   TC - TEMPERATURE IN CELSIUS
  WCI - WIND CHILL INDEX
   HX - HEAT INDEX
  VSB - VISIBILITY





USA.gov is the U.S. government's official web portal to all federal, state and local government web resources and services.